Dewpoint
72 73 75 75 76 76 77 76 76 76 76 75 75 75 75 74 74 74 73 73 73 72 72 72 72 72 72 71 72 72 72 72 72 72 72 72 71 71 71 71 71 71 71 71 70 71 71 71 71 71 71 71 71 71 71 72 72 71 71 71 71 69 69 68 67 66 66 66 66 66 66 66 66 66 66 66 66 66 65 65 66 64 64 64 64
72 73 74 75 76 76 77 77 76 76 76 75 75 75 75 75 74 74 74 73 73 72 72 72 72 72 72 72 72 72 72 72 72 72 72 72 71 71 71 71 70 70 70 70 70 71 71 71 71 71 71 71 71 71 71 71 71 71 71 71 70 69 68 67 67 67 67 67 67 66 66 66 66 66 66 66 66 66 65 65 66 64 64 63 64
72 73 74 75 76 76 77 77 76 76 76 75 75 75 75 74 74 74 73 73 73 72 72 72 72 72 71 71 71 72 72 72 72 72 71 71 71 71 70 70 70 70 70 70 70 71 71 71 71 71 71 71 72 71 72 71 71 71 71 71 70 69 68 67 68 68 67 67 67 67 67 66 66 66 66 65 65 66 66 65 64 63 61 64 64
72 73 74 75 76 76 76 77 76 76 76 75 75 75 75 74 74 74 73 73 73 72 72 72 71 71 71 71 71 72 72 72 72 71 71 71 71 70 70 70 69 69 69 70 70 71 71 71 70 71 70 71 71 71 71 69 70 71 71 71 70 69 68 68 68 68 68 67 68 67 68 64 64 66 66 65 65 66 65 64 64 63 64 65 66
72 73 74 75 75 76 76 76 76 76 75 75 75 75 75 74 74 73 73 73 73 72 72 71 71 71 71 71 71 72 72 72 71 71 71 70 71 69 70 70 69 69 69 70 70 70 70 70 70 70 70 70 71 72 70 70 70 71 71 71 69 69 68 68 68 67 67 67 67 67 64 63 63 65 65 64 65 65 64 64 64 62 66 65 65
73 74 74 74 75 75 75 76 76 76 75 75 74 75 75 74 74 73 73 73 73 72 72 71 71 71 71 71 71 71 71 71 71 71 71 70 70 70 70 70 70 70 70 69 70 70 69 69 70 70 70 71 72 72 70 71 71 71 71 71 69 68 67 66 67 67 66 66 66 64 62 62 62 63 66 65 65 64 64 64 64 63 63 62 63
72 73 73 74 74 75 76 76 76 75 75 74 74 74 74 74 74 73 73 73 72 72 72 71 71 71 71 71 71 71 72 71 71 70 70 70 69 70 70 70 70 70 70 69 69 69 69 68 70 70 70 71 71 71 71 71 71 71 71 70 70 69 68 66 67 66 66 65 62 62 62 62 62 62 65 65 65 65 64 63 63 63 63 63 63
71 71 73 74 74 75 76 76 76 75 75 74 74 73 74 74 74 73 73 73 72 72 71 71 71 71 71 70 70 71 72 71 71 71 70 70 70 70 70 70 70 70 69 69 68 68 68 68 70 70 70 71 71 71 71 71 71 71 70 70 70 70 69 67 67 66 65 62 61 61 61 62 62 62 65 65 65 64 64 64 64 63 62 63 63
69 71 73 74 74 75 75 75 75 75 74 73 71 71 71 72 72 73 73 72 72 72 71 71 71 71 70 70 70 71 71 71 71 71 71 71 70 70 70 70 70 70 69 69 68 66 67 68 70 69 70 71 71 71 71 71 70 71 70 70 70 70 70 69 69 70 66 63 61 61 61 61 62 62 65 65 65 64 65 63 64 63 63 62 62
70 72 73 74 74 75 75 75 75 74 71 69 69 69 69 70 72 72 73 72 72 71 71 71 71 71 70 70 70 70 71 71 71 71 70 70 71 70 70 70 70 70 69 68 68 66 67 68 70 69 69 71 71 71 70 70 70 70 70 70 70 70 69 69 69 69 68 62 61 61 62 65 62 63 64 65 65 65 64 63 64 62 62 62 62
70 72 73 74 74 75 73 72 72 71 70 69 69 69 69 69 70 69 71 71 72 71 71 71 71 71 70 70 70 71 71 71 71 71 70 70 70 70 70 70 69 69 69 67 67 68 68 68 69 69 69 69 70 70 69 69 69 69 69 68 68 68 67 67 68 67 67 62 60 62 64 65 61 62 64 64 65 64 64 63 63 63 63 62 62
70 71 73 74 74 73 72 71 71 69 69 69 69 71 70 70 70 69 68 70 71 71 71 71 71 71 70 70 70 71 71 71 71 71 71 70 70 70 70 69 69 69 68 68 68 68 69 69 69 69 69 69 69 68 68 68 68 69 69 69 69 69 70 70 69 67 65 62 61 62 63 62 62 63 65 65 65 64 64 64 64 63 63 62 62
70 71 71 72 72 73 72 71 70 70 70 70 70 71 70 70 70 70 68 68 69 71 71 71 71 71 70 71 71 71 71 70 70 71 71 70 70 69 69 69 69 69 69 69 69 69 69 70 70 69 69 69 69 68 68 68 69 69 69 70 70 70 70 69 67 66 61 60 63 63 61 62 63 65 65 65 65 65 65 64 64 63 63 63 62
69 70 70 70 71 72 72 71 71 71 71 70 70 70 70 70 70 69 69 68 69 71 72 72 71 71 71 71 71 71 71 71 71 71 71 70 69 69 69 69 69 69 69 69 69 69 70 70 69 70 69 69 69 69 68 68 69 69 69 70 70 70 71 70 70 66 61 62 63 61 61 64 63 66 65 65 65 65 65 64 64 64 63 63 63
68 68 69 69 70 70 72 71 71 70 71 71 71 70 70 70 69 69 69 69 69 71 72 71 71 71 71 71 71 71 71 71 71 70 70 70 69 69 69 69 69 69 69 69 69 70 70 69 70 70 70 70 69 69 69 68 69 69 70 70 70 71 71 70 69 65 61 62 62 63 62 64 67 66 65 65 65 65 65 65 64 64 63 63 63
68 68 68 68 70 70 69 72 71 71 71 71 71 70 70 70 69 69 69 69 69 71 72 72 71 71 71 71 71 71 71 71 71 70 70 69 69 69 69 69 69 69 69 69 69 70 70 70 70 70 70 70 69 69 69 69 69 68 69 70 71 71 71 70 68 64 61 62 63 63 62 65 67 66 65 65 65 65 65 64 64 64 63 63 63
68 68 68 68 69 69 69 69 70 71 71 71 71 70 70 70 70 69 69 69 70 71 72 72 71 71 71 71 71 71 71 71 71 70 70 69 69 69 69 69 69 69 69 69 70 70 71 70 70 70 70 70 69 69 69 69 69 69 70 70 71 72 72 70 68 64 61 62 63 62 63 65 66 66 66 66 65 65 65 64 64 64 64 64 63
67 67 67 68 68 69 69 69 69 69 69 70 71 71 71 70 70 69 70 70 70 72 72 71 71 71 71 71 70 71 71 70 70 70 70 69 69 69 69 70 70 70 70 70 70 71 71 70 70 70 70 70 69 69 69 69 69 70 70 71 71 71 71 69 67 66 61 64 61 64 64 67 67 66 66 66 66 65 65 64 64 64 63 63 63
66 67 67 67 67 68 68 68 68 68 68 68 68 70 71 70 70 70 70 71 71 72 71 71 71 70 70 70 71 71 71 71 70 70 70 69 69 69 69 70 70 70 70 70 70 71 70 70 70 71 70 70 69 70 70 70 69 70 70 70 70 70 70 69 66 66 65 62 61 63 64 67 67 67 66 66 66 65 65 65 64 64 63 64 64
65 66 66 66 66 66 66 67 67 67 67 67 67 69 71 71 71 71 71 71 71 71 71 71 71 70 70 70 71 71 71 70 70 70 70 69 69 69 69 71 70 70 70 70 70 71 70 70 70 70 70 69 70 70 70 70 69 70 70 70 70 70 66 65 65 64 60 60 63 63 66 67 67 67 67 66 66 65 65 64 64 64 64 64 63
64 65 65 66 66 66 66 66 67 67 68 67 67 68 70 71 71 71 71 71 71 71 71 71 71 70 70 70 71 71 69 69 68 69 70 70 69 69 69 70 70 70 70 70 71 70 70 70 70 70 70 70 70 70 70 70 70 70 70 70 69 66 65 63 64 64 60 62 64 62 67 67 67 67 67 66 66 65 65 64 64 64 64 64 63
63 63 64 65 66 67 66 66 66 67 67 68 68 69 69 70 70 71 71 71 71 71 71 70 71 70 70 70 70 70 69 68 68 69 70 70 69 69 69 70 70 70 71 70 70 70 71 70 70 70 70 70 70 68 69 71 71 70 70 70 66 65 64 63 63 62 62 62 63 64 68 68 67 67 67 67 66 66 65 65 64 64 64 64 63
62 62 64 65 66 66 67 66 66 67 66 66 67 69 69 69 70 70 70 71 72 72 71 71 70 70 70 69 69 67 68 68 69 69 69 69 69 69 69 70 70 70 71 70 70 71 70 71 70 70 70 70 68 67 67 66 66 70 71 68 65 65 64 63 63 64 60 62 61 65 68 68 68 67 67 67 66 66 65 65 64 64 64 64 64
63 63 64 64 65 66 67 67 66 66 66 66 66 67 67 68 68 69 70 70 71 71 69 67 66 66 68 67 66 67 66 67 70 69 70 66 66 68 69 69 70 70 70 70 70 70 70 71 71 70 71 70 67 67 68 66 66 66 64 64 65 64 64 64 64 62 61 63 62 67 69 68 68 68 67 67 66 66 65 65 64 64 64 63 63
63 64 64 64 64 65 65 66 66 66 66 66 66 67 66 66 66 68 69 70 67 65 65 65 65 65 66 66 66 65 65 65 65 65 66 66 65 64 65 66 67 68 70 68 68 69 70 69 68 70 67 67 66 67 67 65 65 66 66 65 64 64 64 65 65 61 61 62 63 68 69 68 68 68 68 67 67 66 66 65 65 65 64 64 64
62 63 63 63 64 65 65 66 66 65 66 66 67 67 66 65 65 66 66 66 65 64 65 66 66 66 66 66 66 64 65 65 65 65 65 65 65 65 65 65 66 68 70 68 68 68 68 68 68 68 67 67 67 66 66 66 64 64 66 66 65 64 64 64 65 62 61 62 64 69 69 69 68 68 67 67 67 67 66 65 65 64 64 64 63
61 63 64 63 64 65 64 64 64 64 64 65 66 66 65 66 66 66 65 64 65 64 65 65 66 67 67 67 65 65 65 65 65 65 65 65 65 66 66 66 66 67 68 67 66 67 67 68 68 68 68 67 67 66 65 64 64 65 66 66 66 65 64 64 65 64 61 61 65 70 70 69 69 68 68 67 67 67 66 66 65 65 64 64 64
61 62 64 64 64 64 63 63 62 63 63 64 65 64 65 66 67 67 65 67 65 64 64 65 66 66 66 66 66 65 65 65 65 65 65 65 65 66 67 67 67 66 67 67 67 66 66 67 67 67 67 67 66 65 65 64 64 65 66 66 65 65 64 64 64 64 61 61 64 69 70 69 69 69 68 67 67 67 67 66 66 65 64 64 65
62 63 64 64 64 64 62 62 62 62 62 63 64 64 64 65 65 65 65 68 63 63 64 65 65 66 66 66 66 65 66 65 65 65 64 64 65 65 66 66 66 67 67 66 66 66 66 66 66 67 66 67 66 65 65 65 65 65 65 66 66 65 65 65 65 65 61 61 64 68 70 70 69 69 68 68 67 67 67 67 66 66 65 65 64
62 64 64 63 62 62 61 61 61 61 62 62 62 63 64 64 65 65 65 66 64 64 64 64 65 65 66 66 67 65 65 65 65 65 64 64 64 64 65 65 66 66 66 66 66 66 66 66 65 65 65 66 66 65 66 65 65 66 65 64 64 65 65 65 65 65 62 61 63 66 70 70 69 68 69 68 68 67 67 67 67 66 66 65 65
62 63 64 63 63 62 61 61 61 62 62 62 62 63 64 65 66 65 64 63 64 65 65 64 66 66 65 65 65 66 65 65 65 65 65 64 64 64 64 65 65 65 67 66 66 66 66 66 66 65 65 65 65 65 66 65 64 64 65 65 64 64 64 64 65 65 63 61 62 64 68 70 69 68 68 68 68 68 67 67 67 67 66 66 66
62 63 64 63 62 61 61 61 61 62 62 61 62 62 63 64 65 65 65 65 64 64 65 66 67 66 65 65 65 66 66 66 65 65 65 64 63 64 64 64 64 65 66 66 66 66 66 65 65 65 65 65 65 64 64 64 64 63 63 64 64 63 63 63 64 65 64 62 61 63 65 69 70 69 68 68 68 68 68 68 67 67 67 66 66
61 63 63 63 62 61 60 60 60 60 59 60 60 60 61 62 63 64 65 65 64 65 65 67 66 66 66 66 66 67 67 66 66 65 66 65 64 64 65 65 65 66 66 66 65 65 64 64 63 63 62 64 64 63 61 62 62 62 62 62 62 62 62 62 63 64 64 63 61 62 64 67 67 69 69 68 68 68 68 68 68 68 68 67 66
63 64 64 62 62 62 61 61 60 59 59 59 60 61 62 63 63 63 64 63 65 66 67 67 67 66 66 65 67 67 67 68 67 67 66 66 66 65 66 66 67 67 66 66 65 65 65 64 63 63 64 62 60 60 59 58 59 60 60 61 61 61 61 61 62 64 64 64 62 61 62 65 65 66 66 68 68 68 69 69 68 68 68 68 67
64 63 63 62 62 61 61 61 60 59 60 59 59 61 62 62 62 62 64 64 65 66 67 67 66 65 65 67 67 67 67 66 67 67 67 67 66 66 66 66 67 67 66 66 65 65 65 64 64 63 63 62 61 62 60 59 59 59 59 59 59 58 59 60 61 63 63 64 64 62 62 63 64 64 65 66 68 69 69 69 69 69 68 68 68
62 62 62 61 61 60 60 58 58 58 58 59 60 62 62 62 62 63 62 62 63 64 66 66 66 65 66 66 66 68 67 66 66 67 67 67 66 66 66 67 67 67 67 66 66 65 65 64 64 64 63 62 63 62 61 60 59 59 60 59 58 60 58 57 57 59 62 63 64 64 63 62 63 63 65 64 65 67 69 69 69 69 68 68 68
61 62 61 60 60 61 61 58 58 58 59 61 60 60 62 61 60 60 61 62 62 63 65 66 67 67 67 66 67 68 68 67 67 66 65 67 66 66 66 67 67 67 66 65 64 64 64 64 63 65 63 62 63 63 62 61 61 60 60 61 61 61 59 57 55 54 55 62 63 65 64 63 63 66 64 63 63 64 67 68 69 69 69 68 68
62 61 61 60 60 60 60 60 60 60 60 60 60 60 61 62 61 62 64 62 62 63 63 64 65 66 66 66 67 67 67 67 67 67 66 65 67 67 66 66 67 67 66 65 65 64 64 63 62 62 63 62 62 62 62 61 62 63 62 62 61 61 62 61 61 62 56 54 60 64 65 64 63 63 63 63 63 63 63 66 68 68 69 69 68
62 61 61 61 60 60 61 61 60 60 60 59 60 60 61 62 62 62 62 63 64 63 63 63 63 64 65 66 67 67 67 67 67 66 67 67 67 67 66 66 67 67 67 66 66 65 64 63 63 62 64 64 64 63 63 62 63 63 63 63 62 62 62 62 62 61 59 54 52 60 65 64 64 63 63 63 63 63 63 63 65 66 67 69 68
62 61 61 61 61 60 61 61 61 61 61 60 60 60 61 62 61 60 59 63 63 64 63 63 63 63 64 65 65 67 67 66 66 66 66 67 67 66 66 67 67 66 67 66 66 66 65 65 64 64 63 63 64 64 63 62 62 62 63 63 62 62 62 62 61 61 61 59 56 54 58 64 64 64 63 63 63 63 63 63 64 65 65 66 68
60 60 60 61 61 62 61 61 60 60 61 59 58 59 57 57 55 57 57 57 60 61 61 62 63 63 64 63 63 65 66 65 65 64 64 65 67 67 66 66 67 67 67 66 66 66 66 65 64 64 63 62 62 63 63 62 62 61 60 61 61 61 62 62 61 61 60 60 59 56 53 58 64 64 64 64 64 63 63 63 63 63 64 64 65
59 59 59 59 59 59 60 58 56 56 56 55 56 54 54 55 53 51 54 55 53 52 53 56 59 61 61 59 59 60 59 61 63 64 64 63 65 66 66 66 66 66 66 67 66 67 66 65 65 64 64 63 62 62 62 62 59 59 57 58 59 60 60 61 60 60 60 60 59 58 56 52 55 63 65 65 64 64 63 63 63 63 63 64 64
58 58 58 57 56 55 55 55 54 54 53 54 53 53 54 55 54 54 51 54 57 55 54 57 57 56 56 57 57 56 57 58 58 59 59 61 62 64 64 65 65 66 66 64 64 65 65 64 64 65 64 63 63 63 62 62 58 59 58 57 56 55 55 57 58 59 59 59 59 58 57 55 53 53 61 65 64 64 64 64 64 63 63 63 63
57 56 55 55 54 56 53 53 53 53 54 55 55 53 54 53 53 54 55 51 52 59 55 54 54 55 54 56 55 56 56 56 56 57 58 56 58 58 60 64 65 65 65 64 64 62 62 63 64 64 65 64 64 63 64 62 62 59 56 57 55 53 54 54 56 57 59 58 58 58 57 56 54 53 50 59 64 65 64 64 64 64 64 63 63
54 54 54 53 53 52 53 53 53 52 52 57 54 55 55 53 52 51 54 53 52 52 50 50 52 56 54 52 53 57 56 56 57 57 58 58 58 58 58 59 62 63 65 64 64 63 63 63 63 63 64 64 64 63 62 63 63 63 62 57 55 54 54 55 56 56 58 58 58 58 58 57 57 55 52 49 54 62 64 64 64 64 64 64 64
52 52 52 52 52 52 53 52 52 52 52 52 53 54 53 51 50 49 48 48 48 48 47 48 50 51 51 54 55 56 56 57 56 57 58 59 58 57 58 58 58 60 61 63 65 64 63 63 63 63 64 64 63 63 63 64 64 64 63 62 60 56 54 56 56 54 57 60 59 58 58 59 58 57 57 56 52 47 58 62 64 64 65 65 64
51 51 51 52 52 52 52 52 52 51 53 53 54 54 51 51 50 49 49 48 48 49 50 51 52 53 54 53 54 56 57 58 57 57 57 57 58 57 57 58 58 58 60 59 59 60 62 63 64 64 64 63 63 62 63 63 64 64 64 64 63 63 61 59 57 56 56 56 58 60 60 61 61 61 60 60 60 59 55 51 54 60 63 65 65
50 51 51 51 51 52 52 52 53 54 53 53 53 53 51 51 51 51 52 49 48 48 49 50 53 57 52 53 54 55 56 56 56 57 57 58 59 57 56 57 57 56 59 57 57 58 57 57 59 60 61 63 63 62 62 64 62 61 63 63 63 63 63 62 61 60 59 57 58 59 60 59 59 59 59 59 59 59 59 60 56 49 52 59 64
51 50 50 50 51 52 53 53 53 53 52 54 54 53 53 50 51 51 51 51 50 51 54 54 52 53 51 53 53 53 55 55 55 55 55 56 58 57 56 56 55 55 60 57 56 55 55 56 56 57 57 58 60 61 62 62 62 61 62 62 63 63 63 63 63 62 60 59 58 59 59 59 60 60 60 60 60 60 60 59 59 57 52 50 57
50 51 50 51 51 52 53 52 52 51 52 53 53 52 52 53 50 49 49 49 50 49 50 50 50 51 51 51 52 53 53 53 54 53 53 55 55 57 56 56 56 58 59 55 55 54 54 55 55 56 57 56 57 58 59 60 61 62 63 62 61 61 62 62 62 61 61 61 59 59 59 59 58 59 59 60 61 61 61 61 61 60 59 59 55
50 50 50 50 51 51 52 51 51 52 53 52 51 52 52 50 50 50 50 49 50 49 47 48 49 50 50 50 51 52 52 52 53 52 53 53 55 57 55 54 56 57 56 54 54 54 55 55 54 55 55 56 56 57 57 58 60 60 61 62 61 61 60 59 59 60 59 59 59 59 59 60 59 59 60 60 60 60 60 60 60 60 60 60 59